Location: Bergen
(60.3910°N, 5.3250°E)
Time: 04:31:40
(UTC+02:00)

ISS - Visible Passes

Search period start: 28 July 2017 00:00
Search period end: 07 August 2017 00:00
Orbit: 400 x 408 km, 51.6° (Epoch: 28 July)

Date Brightness Start Highest point End Pass type
(mag) Time Alt. Az. Time Alt. Az. Time Alt. Az.
28 Jul -2.2 00:43:33 10° SW 00:45:49 17° S 00:46:57 15° SSE visible
28 Jul -2.2 23:51:26 10° SW 23:53:45 18° S 23:56:04 10° SE visible
29 Jul -1.7 01:27:47 10° SW 01:28:45 12° SSW 01:28:45 12° SSW visible
30 Jul -2.0 00:35:20 10° SW 00:37:21 15° SSW 00:38:01 15° S visible
30 Jul -2.1 23:43:03 10° SW 23:45:16 17° S 23:47:17 11° SSE visible
01 Aug -1.7 00:27:25 10° SW 00:28:47 12° SSW 00:29:12 12° SSW visible
01 Aug -1.8 23:34:49 10° SW 23:36:43 15° SSW 23:38:31 10° SSE visible
03 Aug -1.5 23:27:00 10° SW 23:28:04 11° SSW 23:29:07 10° S visible
